[[{"header":{"parameterUnit":"m.s-1","parameterCategory":1,"la1":30.2991,"la2":30.254,"lo1":-89.0895,"lo2":-89.0444,"dy":0.0017,"dx":0.0017,"nx":28,"ny":28,"refTime":"2024-06-15T03:00:00:Z","depth":0,"parameterNumber":2,"parameterNumberName":"U-component_of_WINDS"},"data":[0,0,0,0,0,0,0,0,0,0,0,0,0,0,0,0,0,0,0,0,0,0,0,0,0,0,0,0,0,0,0,0,0,0,0,0,0,0,0,0,0,0,0,0,0,0,0,0,0,0,0,0,0,0,0,0,0,0,-4.1563,-4.1563,0,-4.1595,-4.1596,-4.1596,-4.1538,-4.1536,-4.1534,-4.1532,-4.1563,-4.1566,-4.1569,0,0,0,0,0,0,0,0,0,0,0,0,0,-4.1447,-4.145,-4.1563,-4.1563,-4.1564,-4.1595,-4.1596,-4.1596,-4.1538,-4.1536,-4.1533,-4.1531,-4.1563,-4.1566,-4.1569,0,0,0,0,0,0,0,0,0,0,0,0,0,-4.1491,-4.1451,-4.1563,-4.1538,-4.1537,-4.1595,-4.1596,-4.1596,-4.1538,-4.1535,-4.1533,-4.153,-4.1562,-4.1565,-4.1569,-4.1653,0,0,-4.1582,-4.1583,0,0,0,0,0,0,0,0,-4.1488,-4.1495,-4.1542,-4.154,-4.1538,-4.1559,-4.1567,-4.1615,-4.1539,-4.1538,-4.1532,-4.1528,-4.1564,-4.1568,-4.158,-4.1654,-4.1656,-4.1582,-4.1584,-4.1586,-4.1587,0,0,0,0,0,0,0,-4.1485,-4.1493,-4.1576,-4.1542,-4.154,-4.1525,-4.1528,-4.1576,-4.1567,-4.1538,-4.1533,-4.1538,-4.1563,-4.1577,-4.1581,-4.1656,-4.1582,-4.1585,-4.1588,-4.1589,-4.1797,-4.18,0,0,0,0,0,0,-4.1486,-4.1491,-4.1575,-4.1577,-4.1505,-4.1529,-4.1533,-4.1556,-4.1566,-4.1565,-4.1541,-4.1535,-4.1571,-4.1576,-4.1582,-4.1678,-4.1586,-4.159,-4.1592,-4.1794,-4.1798,-4.1801,0,0,0,0,0,0,-4.1483,-4.1494,-4.1573,-4.1533,-4.1542,-4.1535,-4.1561,-4.1558,-4.1571,-4.1569,-4.1567,-4.1556,-4.1569,-4.1576,-4.1635,-4.1678,-4.1592,-4.1595,-4.1791,-4.1795,-4.18,-4.1872,0,0,0,0,0,0,-4.148,-4.1493,-4.1525,-4.1534,-4.1544,-4.1627,-4.1563,-4.156,-4.1579,-4.1572,-4.1583,-4.1582,-4.1567,-4.1629,-4.1639,-4.1682,-4.1598,-4.1787,-4.1793,-4.1798,-4.1866,-4.1879,-4.189,0,0,0,0,0,-4.1476,-4.1545,-4.1527,-4.1538,-4.1584,-4.163,-4.1635,-4.1618,-4.1583,-4.1614,-4.1612,-4.1582,-4.1673,-4.1636,-4.1646,-4.1691,-4.1784,-4.1791,-4.1798,-4.186,-4.1876,-4.1889,0,0,0,0,0,0,-4.1541,-4.1545,-4.1526,-4.16,-4.1615,-4.162,-4.1659,-4.1635,-4.166,-4.1653,-4.163,-4.1633,-4.1696,-4.17,-4.1659,-4.1771,-4.1722,-4.1731,-4.1766,-4.1781,-4.1793,-4.1789,-4.1602,0,0,0,0,0,-4.1564,-4.1602,-4.1603,-4.1667,-4.1676,-4.1667,-4.1686,-4.1671,-4.1685,-4.1691,-4.1694,-4.1708,-4.174,-4.1761,-4.179,-4.1867,-4.1867,-4.1903,-4.1915,-4.1925,-4.1932,-4.1971,-4.1986,-4.1824,-4.1824,-4.1824,0,0,-4.1612,-4.1619,-4.1644,-4.1681,-4.1691,-4.1728,-4.1672,-4.1715,-4.1742,-4.1698,-4.1753,-4.1755,-4.177,-4.1838,-4.1868,-4.1843,-4.1977,-4.1934,-4.1941,-4.1944,-4.1979,-4.1995,-4.2008,-4.1829,-4.1828,-4.1828,0,0,-4.1717,-4.1727,-4.1781,-4.1792,-4.1808,-4.1801,-4.1814,-4.1823,-4.1822,-4.1878,-4.1844,-4.1876,-4.1932,-4.1943,-4.1956,-4.2065,-4.2036,-4.2075,-4.2136,-4.2174,-4.2187,-4.2198,-4.2234,-4.2248,-4.2083,-4.2083,-4.2083,0,-4.1774,-4.183,-4.1811,-4.1856,-4.1872,-4.1834,-4.1887,-4.1899,-4.1923,-4.1935,-4.1907,-4.1975,-4.1982,-4.205,-4.2077,-4.209,-4.2102,-4.2072,-4.2187,-4.2198,-4.2208,-4.2242,-4.2256,-4.2088,-4.2087,-4.2087,-4.2086,0,-4.1898,-4.1937,-4.1979,-4.2003,-4.2024,-4.2073,-4.206,-4.2084,-4.2067,-4.2063,-4.2119,-4.2127,-4.2155,-4.2171,-4.2156,-4.2237,-4.2221,-4.2191,-4.214,-4.2228,-4.2259,-4.2273,-4.2094,-4.2092,-4.2091,-4.209,0,0,-4.2044,-4.2057,-4.2072,-4.2082,-4.2096,-4.2126,-4.2172,-4.2201,-4.222,-4.2239,-4.2276,-4.2323,-4.2295,-4.231,-4.2295,-4.2329,-4.2411,-4.2294,-4.2293,-4.2313,-4.2498,-4.2519,-4.2535,-4.2394,-4.2396,-4.2398,-4.2496,0,-4.2146,-4.2227,-4.2211,-4.2288,-4.2323,-4.2287,-4.2327,-4.234,-4.2337,-4.2366,-4.2363,-4.2396,-4.2357,-4.2365,-4.2397,-4.2394,-4.2447,-4.2387,-4.2426,-4.2427,-4.242,-4.2552,-4.2574,-4.2667,-4.2509,-4.2511,-4.2512,0,-4.2277,-4.2299,-4.2381,-4.2387,-4.2401,-4.2438,-4.2462,-4.249,-4.2503,-4.2499,-4.2515,-4.2494,-4.2538,-4.2489,-4.2549,-4.2509,-4.2524,-4.2525,-4.2528,-4.2528,-4.2473,-4.2554,-4.2696,-4.2709,-4.2532,-4.2531,-4.2529,0,-4.2372,-4.2423,-4.2477,-4.2487,-4.2497,-4.2523,-4.2529,-4.2539,-4.2557,-4.2578,-4.2588,-4.2615,-4.2628,-4.2648,-4.2634,-4.26,-4.2696,-4.2646,-4.2691,-4.2692,-4.2711,-4.2709,-4.2855,-4.2725,-4.2725,-4.2725,-4.2725,0,-4.2486,-4.2537,-4.252,-4.2553,-4.2608,-4.2589,-4.2644,-4.2645,-4.2654,-4.2686,-4.2657,-4.2688,-4.2668,-4.2697,-4.2686,-4.2736,-4.2743,-4.2739,-4.2735,-4.274,-4.2741,-4.2748,-4.274,-4.2729,-4.2728,-4.2727,-4.2726,0,-4.2601,-4.2592,-4.2648,-4.2654,-4.2656,-4.2696,-4.27,-4.273,-4.2725,-4.2766,-4.2774,-4.2767,-4.2799,-4.2787,-4.2821,-4.2814,-4.2877,-4.2866,-4.2872,-4.2868,-4.2913,-4.2908,-4.3067,-4.3085,-4.2946,-4.2948,-4.2949,0,-4.2673,-4.2711,-4.272,-4.2739,-4.2747,-4.2779,-4.2796,-4.2779,-4.2798,-4.2815,-4.2843,-4.2873,-4.2895,-4.2948,-4.2945,-4.297,-4.2958,-4.3012,-4.2962,-4.2965,-4.2955,-4.2952,-4.2955,-4.3021,-4.3023,-4.3024,-4.3025,0,-4.2802,-4.2795,-4.2822,-4.2847,-4.2869,-4.2887,-4.2903,-4.2921,-4.2904,-4.2927,-4.2959,-4.2977,-4.3012,-4.304,-4.3063,-4.3068,-4.3043,-4.3041,-4.3052,-4.3057,-4.3058,-4.3055,-4.2897,-4.3037,-4.3036,-4.3035,-4.3034,-4.3034,-4.2896,-4.2927,-4.2937,-4.2968,-4.2978,-4.2993,-4.3021,-4.302,-4.3047,-4.3073,-4.3062,-4.3098,-4.3109,-4.3137,-4.3145,-4.3172,-4.3151,-4.3169,-4.3172,-4.3176,-4.3181,-4.3056,-4.3177,-4.3177,-4.3176,-4.3176,-4.3176,0,-4.3021,-4.3026,-4.3054,-4.3076,-4.31,-4.3076,-4.3092,-4.3112,-4.3145,-4.3157,-4.318,-4.3216,-4.3244,-4.3243,-4.3268,-4.329,-4.328,-4.3297,-4.3294,-4.3295,-4.32,-4.3186,-4.3306,-4.3306,-4.3306,-4.3306,-4.3306,-4.3305,-4.3088,-4.3138,-4.3133,-4.3187,-4.3192,-4.3227,-4.3238,-4.3252,-4.3261,-4.3303,-4.3326,-4.3325,-4.3331,-4.3357,-4.3381,-4.338,-4.3389,-4.3411,-4.3405,-4.3315,-4.3302,-4.329,-4.3277,-4.3414,-4.3414,-4.3498,-4.3499,-4.3499]},{"header":{"parameterUnit":"m.s-1","parameterCategory":1,"la1":30.2991,"la2":30.254,"lo1":-89.0895,"lo2":-89.0444,"dy":0.0017,"dx":0.0017,"nx":28,"ny":28,"refTime":"2024-06-15T03:00:00:Z","depth":0,"parameterNumber":3,"parameterNumberName":"V-component_of_WINDS"},"data":[0,0,0,0,0,0,0,0,0,0,0,0,0,0,0,0,0,0,0,0,0,0,0,0,0,0,0,0,0,0,0,0,0,0,0,0,0,0,0,0,0,0,0,0,0,0,0,0,0,0,0,0,0,0,0,0,0,0,2.1404,2.1403,0,2.1351,2.1351,2.135,2.124,2.1238,2.1236,2.1234,2.118,2.118,2.1181,0,0,0,0,0,0,0,0,0,0,0,0,0,2.1412,2.1412,2.1404,2.1403,2.1403,2.1351,2.1351,2.135,2.1241,2.1238,2.1235,2.1233,2.1179,2.118,2.1181,0,0,0,0,0,0,0,0,0,0,0,0,0,2.1389,2.1412,2.1404,2.1342,2.1336,2.1351,2.1351,2.135,2.1241,2.1238,2.1234,2.1231,2.1179,2.118,2.1181,2.1253,0,0,2.1184,2.1184,0,0,0,0,0,0,0,0,2.139,2.1388,2.1352,2.1346,2.1339,2.1299,2.1333,2.1317,2.1242,2.1277,2.1234,2.123,2.1222,2.1219,2.1217,2.125,2.1248,2.1184,2.1184,2.1185,2.1185,0,0,0,0,0,0,0,2.1392,2.139,2.1383,2.1351,2.1344,2.1317,2.131,2.133,2.1269,2.1274,2.1266,2.1261,2.1218,2.1216,2.1214,2.1247,2.1184,2.1185,2.1185,2.1186,2.1339,2.1343,0,0,0,0,0,0,2.1402,2.1392,2.1385,2.1381,2.1357,2.132,2.1312,2.1315,2.1268,2.1258,2.1264,2.1256,2.1216,2.1214,2.1212,2.1294,2.1185,2.1186,2.1186,2.1336,2.134,2.1344,0,0,0,0,0,0,2.1403,2.1403,2.1387,2.1385,2.1381,2.1323,2.1328,2.1316,2.1314,2.1261,2.1249,2.1273,2.1213,2.1211,2.1244,2.129,2.1186,2.1187,2.1332,2.1337,2.1342,2.1457,0,0,0,0,0,0,2.1404,2.1404,2.143,2.1386,2.1381,2.1419,2.133,2.1317,2.1316,2.1305,2.1266,2.1256,2.121,2.1243,2.1245,2.129,2.1188,2.1327,2.1334,2.134,2.1449,2.1466,2.148,0,0,0,0,0,2.1404,2.1464,2.1431,2.1431,2.1412,2.1422,2.1419,2.1365,2.132,2.1346,2.1312,2.1258,2.1286,2.1248,2.1248,2.1294,2.1324,2.1332,2.134,2.1442,2.1463,2.148,0,0,0,0,0,0,2.1513,2.1457,2.142,2.1467,2.1451,2.1403,2.1434,2.1388,2.1384,2.1374,2.1307,2.1299,2.1342,2.1321,2.128,2.1362,2.1296,2.1305,2.1374,2.1393,2.1408,2.1412,2.1188,0,0,0,0,0,2.1543,2.1555,2.1505,2.1552,2.1545,2.1492,2.1494,2.1454,2.1434,2.1426,2.1395,2.1377,2.1382,2.1386,2.1388,2.1447,2.1437,2.1479,2.1495,2.1508,2.1515,2.1546,2.1564,2.137,2.137,2.137,0,0,2.1604,2.1575,2.1586,2.1573,2.1555,2.157,2.1486,2.1505,2.1516,2.1429,2.1458,2.1435,2.1411,2.1458,2.1477,2.1442,2.1567,2.1518,2.1529,2.1529,2.1556,2.1575,2.1591,2.1375,2.1374,2.1373,0,0,2.1723,2.1702,2.1739,2.1723,2.1698,2.1662,2.1672,2.1632,2.1614,2.1643,2.1578,2.1591,2.16,2.1586,2.158,2.1698,2.1648,2.1701,2.1781,2.1812,2.1828,2.1841,2.1883,2.1899,2.1709,2.1709,2.1709,0,2.1802,2.1821,2.1764,2.1787,2.1784,2.1707,2.1745,2.1732,2.1709,2.1709,2.1671,2.1683,2.1661,2.1704,2.1733,2.1731,2.174,2.1703,2.183,2.1843,2.1854,2.1894,2.191,2.1716,2.1715,2.1714,2.1713,0,2.192,2.1934,2.1967,2.1947,2.1948,2.1979,2.1927,2.1934,2.1896,2.1865,2.1896,2.1869,2.1864,2.1872,2.1833,2.191,2.1889,2.1842,2.1774,2.188,2.1916,2.1931,2.1725,2.1723,2.1721,2.1719,0,0,2.2102,2.2053,2.2066,2.2056,2.2024,2.2035,2.2063,2.2059,2.2067,2.2055,2.2077,2.2089,2.2045,2.2039,2.1999,2.2027,2.2122,2.1976,2.1974,2.2004,2.2206,2.2241,2.226,2.209,2.2093,2.2095,2.2208,0,2.2213,2.2257,2.2208,2.2263,2.2276,2.2206,2.2231,2.2214,2.2187,2.2196,2.2165,2.2175,2.2117,2.2113,2.2137,2.2106,2.2162,2.2097,2.211,2.2111,2.2117,2.2278,2.2315,2.2423,2.2222,2.2224,2.2226,0,2.2346,2.2341,2.2398,2.2365,2.2368,2.2391,2.2385,2.2394,2.2375,2.2353,2.2348,2.2301,2.2327,2.2263,2.2299,2.2256,2.2259,2.2245,2.2248,2.2246,2.2174,2.228,2.2456,2.2472,2.2247,2.2246,2.2244,0,2.2474,2.2481,2.2516,2.2511,2.2473,2.2491,2.2476,2.2454,2.2455,2.245,2.2451,2.2449,2.2448,2.2448,2.2402,2.236,2.2445,2.2376,2.2427,2.2429,2.2447,2.2446,2.2625,2.2451,2.2451,2.245,2.245,0,2.2601,2.2639,2.2573,2.2595,2.2636,2.258,2.2622,2.26,2.2581,2.2598,2.2538,2.2555,2.2494,2.2505,2.247,2.2505,2.2505,2.2489,2.2479,2.2494,2.2496,2.2493,2.2484,2.2455,2.2454,2.2453,2.2452,0,2.2749,2.2707,2.2741,2.2703,2.2695,2.2726,2.2694,2.2713,2.2684,2.2706,2.2708,2.2661,2.2672,2.2627,2.2629,2.2605,2.2659,2.2636,2.2665,2.2658,2.2712,2.2708,2.2895,2.2917,2.273,2.2732,2.2734,0,2.2832,2.286,2.2826,2.2833,2.2822,2.2834,2.2836,2.2783,2.2788,2.277,2.2792,2.2798,2.2799,2.2819,2.2785,2.2787,2.2764,2.283,2.2764,2.2779,2.2765,2.2764,2.2766,2.2843,2.2846,2.2847,2.2849,0,2.2985,2.2964,2.2968,2.2968,2.2972,2.2968,2.296,2.297,2.2914,2.2922,2.2932,2.2934,2.2937,2.2944,2.294,2.2925,2.2878,2.2871,2.2883,2.2897,2.2913,2.2905,2.2702,2.2866,2.2864,2.2863,2.2862,2.2861,2.3102,2.3124,2.3105,2.3113,2.3102,2.3097,2.3114,2.3087,2.3095,2.3094,2.3063,2.308,2.3063,2.3052,2.3043,2.3055,2.3024,2.3042,2.3046,2.3051,2.306,2.2912,2.3054,2.3054,2.3053,2.3053,2.3053,0,2.3251,2.3236,2.3245,2.3237,2.3244,2.3201,2.3191,2.32,2.3216,2.3204,2.3207,2.322,2.3228,2.3196,2.3199,2.3216,2.3195,2.3218,2.3216,2.3213,2.3088,2.3077,2.3235,2.3235,2.3235,2.3235,2.3235,2.3235,2.333,2.3365,2.3342,2.3372,2.3356,2.3372,2.3371,2.3366,2.3357,2.3374,2.338,2.336,2.3341,2.3343,2.3348,2.3338,2.3342,2.3373,2.3357,2.324,2.3222,2.3205,2.3194,2.3375,2.3375,2.3481,2.3482,2.3482]}]]